Flag for Germany Weather past 2 weeks in Hamm, North Rhine-Westphalia, Germany

Now
64 °F

Thundershowers. Scattered clouds.


Feels Like: 64 °F
Forecast: 58 / 74 °F
Wind: 8 mph from South

Location: Dortmund / Wickede

Current Time: Sep 19, 2014 at 8:24:37 PM

Latest Report: Sep 19, 2014 at 7:50 PM


Visibility: N/A

Pressure: 29.89 "Hg

Humidity: 83%

Dew point: 59 °F

Location of HammLocation

Historic Weather in Hamm — Graph

°F

Hamm temperature yesterday

Maximum temperature yesterday: 72 °F (at 10:20 AM)
Minimum temperature yesterday: 55 °F (at 5:50 AM)
Average temperature yesterday: 64 °F

Past Weeks' High & Low Weather Summary

 TemperatureHumidityPressure
High77 °F (Sep 6, 1:50 PM)94% (Sep 5, 6:50 AM)30.24 "Hg (Sep 5, 6:50 AM)
Low43 °F (Sep 12, 5:50 AM)39% (Sep 17, 3:20 PM)29.83 "Hg (Sep 19, 5:20 AM)
Average63 °F74%30.03 "Hg
* Reported Sep 4 7:20 PM — Sep 19 7:20 PM, Hamm, Weather by CustomWeather, © 2014

Note: Actual official high and low records may vary slightly from our data, if they occured in-between our weather recording intervals... More about our weather records

Advertising

Hamm weather history for previous 24 hours

 ConditionsComfort  
Time TempWeatherWind HumidityBarometerVisibility
7:20 PM
Sep 19
66 °FThundershowers. Scattered clouds.8 mph78%29.89 "HgN/A
6:50 PM66 °FThunderstorms. Broken clouds.8 mph83%29.89 "Hg3 mi
6:20 PM70 °FScattered showers. Partly sunny.6 mph78%29.89 "Hg5 mi
5:50 PM70 °FScattered showers. Partly sunny.5 mph83%29.89 "Hg6 mi
5:20 PM68 °FPartly sunny.3 mph83%29.89 "HgN/A
4:50 PM70 °FSprinkles. Partly sunny.3 mph78%29.89 "Hg4 mi
4:20 PM68 °FThundershowers. Partly sunny.10 mph78%29.89 "Hg3 mi
3:50 PM75 °FThundershowers. Partly sunny.1 mph61%29.86 "Hg6 mi
3:20 PM75 °FScattered clouds.7 mph57%29.86 "HgN/A
2:50 PM73 °FScattered clouds.7 mph65%29.89 "HgN/A
2:20 PM73 °FPassing clouds.8 mph61%29.89 "HgN/A
1:50 PM73 °FPartly sunny.5 mph61%29.86 "HgN/A
1:20 PM73 °FPassing clouds.7 mph65%29.89 "HgN/A
12:50 PM72 °FPassing clouds.5 mph69%29.89 "HgN/A
12:20 PM72 °FPassing clouds.7 mph73%29.89 "HgN/A
11:50 AM70 °FPassing clouds.6 mph73%29.86 "HgN/A
11:20 AM70 °FPassing clouds.7 mph73%29.89 "HgN/A
10:50 AM66 °FPartly sunny.8 mph83%29.89 "HgN/A
10:20 AM66 °FPartly sunny.10 mph78%29.89 "HgN/A
9:50 AM66 °FSunny.8 mph83%29.89 "Hg10 mi
9:20 AM64 °FSunny.8 mph83%29.86 "Hg10 mi
8:50 AM63 °FSunny.9 mph88%29.86 "Hg10 mi
8:20 AM63 °FSunny.9 mph88%29.86 "Hg10 mi
7:50 AM61 °FClear.6 mph94%29.86 "Hg10 mi
7:20 AM57 °FFog.2 mph94%29.83 "Hg6 mi
6:50 AM57 °FFog.2 mph88%29.83 "Hg6 mi
6:20 AM57 °FClear.2 mph94%29.83 "Hg10 mi
5:50 AM61 °FClear.3 mph88%29.83 "Hg10 mi
5:20 AM61 °FClear.10 mph88%29.83 "HgN/A
10:50 PM
Sep 18
63 °FPartly cloudy.10 mph88%29.86 "Hg5 mi
10:20 PM63 °FLight rain. Partly cloudy.16 mph88%29.86 "Hg4 mi
9:20 PM63 °FThundershowers. Passing clouds.9 mph88%29.89 "Hg4 mi
8:50 PM61 °FThundershowers. Passing clouds.10 mph94%29.86 "Hg4 mi
8:20 PM63 °FRain. Broken clouds.6 mph88%29.89 "Hg4 mi
Weather by CustomWeather, © 2014

See weather overviewHow to use our weather pages